Погода в Хазаре

Туркменистан     39°24′19″N   53°07′51″E
темп.,
°C
ветер,
м/с
пор.,
м/с
влажн.,
%
обл.,
%
осадки,
мм/ч
давл.,
гПа
погр.,
м
27 июля, вт
вт2723:00+28ююз56810 0.0 1010248
02:00+27з34780 0.0 1010179
05:00+27з11770 0.0 100951
08:00+28юв23670 0.0 1010148
11:00+31ююз555584 0.0 1009312
14:00+30зюз54645 0.0 1009565
17:00+30з54622 0.0 1006396
20:00+29з56632 0.0 1005185
28 июля, ср
ср2823:00+28сз56745 0.0 1006203
02:00+27ссз79775 0.0 1005201
05:00+27ссз697539 0.0 1005168
08:00+29св226035 0.0 100561
11:00+30з545910 0.0 1006481
14:00+30з345269 0.0 1005428
17:00+30зсз65565 0.0 1005415
20:00+31вюв13485 0.0 1005201
29 июля, чт
чт2923:00+29с111547100 0.0 1008639
02:00+27с9106099 0.1 1007406
05:00+26ссв11115484 0.1 1008565
08:00+27св8853100 0.0 1010553
11:00+28с445422 0.4 1011780
14:00+29зсз7649100 0.0 1010823
17:00+29зсз985199 0.0 1010428
20:00+30сз895271 0.0 1009282
30 июля, пт
пт3023:00+28с78581 0.0 1010178
02:00+28с44565 0.0 101082
05:00+28св335174 0.0 100932
08:00+28вюв566377 0.0 1011218
11:00+31вюв664955 0.0 1011619
14:00+31ю765379 0.0 1010507
17:00+30ююз3356100 0.0 1009462
20:00+28з3366100 0.0 1009347
31 июля, сб
сб3123:00+28сз2365100 0.0 101091
02:00+28с34641 0.0 100995
05:00+28с33570 0.0 100844
08:00+29в124941 0.0 100991
11:00+33юв57235 0.0 1009661
14:00+32сз333279 0.0 10081080
17:00+32сз55395 0.0 1007504
20:00+29сз68531 0.0 1007182